Grand Rapids, MI

10:42 AM EST on December 18, 2017 (GMT -0500)
Gerald R. Ford International

Weather History for KGRR - November, 2011

Change the Weather History Date:

Wednesday, November 9, 2011

  Actual Average Record
Temperature  
Mean Temperature 51 °F 43 °F  
Max Temperature 63 °F 51 °F 73 °F (1931)
Min Temperature 39 °F 35 °F 16 °F (2003)
Degree Days  
Heating Degree Days 14 22  
Month to date heating degree days 150 186  
Since 1 July heating degree days 692 778  
Cooling Degree Days 0 0  
Month to date cooling degree days 0 0  
Year to date cooling degree days 894 699  
Moisture  
Dew Point 46 °F    
Average Humidity 75    
Maximum Humidity 93    
Minimum Humidity 56    
Precipitation  
Precipitation 0.46 in 0.12 in 2.53 in (1966)
Month to date precipitation 1.19 1.08  
Year to date precipitation 41.19 33.34  
Snow  
Snow 0.00 in 0.10 in 4.00 in (1894)
Month to date snowfall 0.0 1.0  
Since 1 July snowfall T 1.5  
Since 1 September snowfall T 1.5  
Snow Depth 0.00 in    
Sea Level Pressure  
Sea Level Pressure 29.71 in    
Wind  
Wind Speed 17 mph (SE)    
Max Wind Speed 33 mph    
Max Gust Speed 45 mph    
Visibility 6 miles    
Events Rain    
T = Trace of Precipitation, MM = Missing Value Source: NWS Daily Summary

Daily Weather History Graph

Daily Weather History Graph

Search for Another Location

Airport or City:

Trip Planner

Search our weather history database for the weather conditions in past years. The results will help you decide how hot, cold, wet, or windy it might be!

Date:

Astronomy

Nov. 09, 2011 Rise Set
Actual Time 7:26 AM EST 5:25 PM EST
Civil Twilight 6:56 AM EST 5:55 PM EST
Nautical Twilight 6:22 AM EST 6:28 PM EST
Astronomical Twilight 5:49 AM EST 7:02 PM EST
Moon 4:36 PM EST (11/9) 6:21 AM EST (11/9)
Length of Visible Light 10h 58m
Length of Day
9h 58m
Waxing Gibbous, 99% of the Moon is Illuminated
Nov 9
Waxing Gibbous
Nov 10
Full
Nov 18
Last Quarter
Nov 25
New
Dec 2
First Quarter

Hourly Weather History & Observations

Time (EST) Temp. Windchill Dew Point Humidity Pressure Visibility Wind Dir Wind Speed Gust Speed Precip Events Conditions
12:13 AM 48.2 °F - 46.4 °F 93% 29.95 in 2.5 mi NE 6.9 mph - 0.01 in Rain Light Rain
12:21 AM 48.2 °F - 46.4 °F 93% 29.95 in 4.0 mi NNE 8.1 mph - 0.01 in Rain Light Rain
12:53 AM 48.0 °F - 46.0 °F 93% 29.96 in 5.0 mi ENE 8.1 mph - 0.01 in Rain Light Rain
1:53 AM 48.0 °F - 46.0 °F 93% 29.93 in 4.0 mi ENE 9.2 mph - 0.04 in Rain Rain
2:53 AM 48.0 °F - 46.0 °F 93% 29.91 in 9.0 mi ENE 9.2 mph - 0.03 in Rain Light Rain
3:53 AM 48.0 °F - 46.9 °F 96% 29.87 in 5.0 mi East 11.5 mph - 0.01 in Rain Light Rain
4:53 AM 48.0 °F - 46.9 °F 96% 29.86 in 3.0 mi East 8.1 mph - 0.00 in   Overcast
5:09 AM 48.2 °F - 46.4 °F 93% 29.84 in 2.5 mi East 9.2 mph - N/A   Overcast
5:46 AM 48.2 °F - 46.4 °F 93% 29.83 in 4.0 mi Variable 5.8 mph - 0.00 in Rain Light Rain
5:53 AM 48.0 °F - 46.9 °F 96% 29.83 in 4.0 mi East 10.4 mph - 0.01 in Rain Light Rain
6:19 AM 48.2 °F - 46.4 °F 93% 29.80 in 5.0 mi East 8.1 mph - 0.02 in Rain Light Rain
6:30 AM 48.2 °F - 46.4 °F 93% 29.79 in 5.0 mi ENE 5.8 mph - 0.03 in Rain Light Rain
6:53 AM 48.2 °F - 46.4 °F 93% 29.77 in 5.0 mi East 10.4 mph - N/A   Overcast
7:33 AM 48.2 °F - 46.4 °F 93% 29.76 in 4.0 mi East 11.5 mph - 0.00 in Rain Light Rain
7:53 AM 48.9 °F - 48.0 °F 97% 29.75 in 3.0 mi East 10.4 mph - 0.01 in Rain Light Rain
8:05 AM 50.0 °F - 48.2 °F 94% 29.74 in 2.5 mi East 9.2 mph - 0.00 in Rain Light Rain
8:25 AM 50.0 °F - 48.2 °F 94% 29.71 in 3.0 mi East 9.2 mph - 0.00 in Rain Light Rain
8:38 AM 51.8 °F - 48.2 °F 88% 29.70 in 3.0 mi East 11.5 mph - 0.00 in   Overcast
8:53 AM 51.8 °F - 50.0 °F 94% 29.70 in 3.0 mi East 11.5 mph - N/A   Overcast
9:22 AM 51.8 °F - 51.8 °F 100% 29.67 in 2.5 mi East 10.4 mph - N/A Rain Light Rain
9:33 AM 53.6 °F - 51.8 °F 94% 29.67 in 1.8 mi East 9.2 mph - 0.02 in Rain Rain
9:53 AM 54.0 °F - 52.0 °F 93% 29.64 in 1.5 mi East 12.7 mph - 0.13 in Rain Rain
10:13 AM 55.4 °F - 53.6 °F 94% 29.63 in 2.5 mi SE 12.7 mph - 0.08 in Rain Light Rain
10:18 AM 55.4 °F - 53.6 °F 94% 29.63 in 1.5 mi SE 13.8 mph - 0.09 in Rain Rain
10:42 AM 57.2 °F - 53.6 °F 88% 29.61 in 7.0 mi SSE 19.6 mph 26.5 mph 0.12 in Rain Light Rain
10:53 AM 57.0 °F - 54.0 °F 89% 29.61 in 2.5 mi SSE 17.3 mph 25.3 mph 0.12 in Rain Light Rain
11:53 AM 57.0 °F - 55.0 °F 93% 29.57 in 4.0 mi South 15.0 mph - 0.01 in Rain Light Rain
12:53 PM 61.0 °F - 55.9 °F 83% 29.52 in 10.0 mi South 17.3 mph 24.2 mph 0.02 in   Mostly Cloudy
1:11 PM 62.6 °F - 55.4 °F 77% 29.50 in 10.0 mi South 21.9 mph 27.6 mph N/A   Mostly Cloudy
1:33 PM 62.6 °F - 55.4 °F 77% 29.48 in 10.0 mi South 16.1 mph 25.3 mph N/A   Mostly Cloudy
1:53 PM 62.1 °F - 46.9 °F 58% 29.49 in 10.0 mi SSW 33.4 mph 42.6 mph N/A   Mostly Cloudy
2:53 PM 57.9 °F - 45.0 °F 62% 29.50 in 10.0 mi SSW 27.6 mph 40.3 mph N/A   Mostly Cloudy
3:44 PM 51.8 °F - 42.8 °F 71% 29.53 in 10.0 mi SSW 26.5 mph 44.9 mph N/A   Overcast
3:53 PM 50.0 °F - 41.0 °F 71% 29.55 in 10.0 mi SSW 27.6 mph 40.3 mph N/A   Overcast
4:53 PM 46.9 °F - 39.9 °F 77% 29.56 in 5.0 mi SSW 25.3 mph 40.3 mph 0.00 in Rain Light Rain
5:08 PM 44.6 °F 35.7 °F 41.0 °F 87% 29.57 in 2.0 mi SSW 24.2 mph 41.4 mph 0.00 in Rain Light Rain
5:21 PM 44.6 °F 36.6 °F 41.0 °F 87% 29.57 in 3.0 mi SW 19.6 mph 31.1 mph 0.00 in Rain Light Rain
5:53 PM 44.1 °F 35.4 °F 41.0 °F 89% 29.61 in 10.0 mi WSW 21.9 mph 32.2 mph 0.04 in Rain Light Rain
6:50 PM 41.0 °F 31.1 °F 37.4 °F 87% 29.64 in 6.0 mi West 23.0 mph 33.4 mph 0.01 in Rain Light Rain
6:53 PM 41.0 °F 31.4 °F 37.9 °F 89% 29.65 in 7.0 mi West 21.9 mph 33.4 mph 0.01 in Rain Light Rain
7:53 PM 39.9 °F 29.7 °F 37.0 °F 89% 29.70 in 9.0 mi West 23.0 mph 31.1 mph 0.00 in Rain Light Rain
8:32 PM 39.2 °F 28.7 °F 35.6 °F 87% 29.73 in 10.0 mi West 23.0 mph 29.9 mph 0.00 in Rain Light Rain
8:53 PM 39.9 °F 30.2 °F 36.0 °F 86% 29.77 in 8.0 mi West 20.7 mph 33.4 mph 0.00 in Rain Light Rain
9:53 PM 39.0 °F 28.8 °F 35.1 °F 86% 29.79 in 10.0 mi West 21.9 mph 27.6 mph 0.00 in Rain Light Rain
10:44 PM 39.2 °F 30.2 °F 35.6 °F 87% 29.82 in 9.0 mi West 17.3 mph 23.0 mph 0.01 in Rain Light Rain
10:53 PM 39.9 °F 31.1 °F 36.0 °F 86% 29.83 in 10.0 mi West 17.3 mph 29.9 mph 0.01 in Rain Light Rain
11:53 PM 39.9 °F 31.4 °F 36.0 °F 86% 29.85 in 10.0 mi West 16.1 mph - 0.00 in   Overcast